TimeCST,TemperatureF,Dew PointF,Humidity,Sea Level PressureIn,VisibilityMPH,Wind Direction,Wind SpeedMPH,Gust SpeedMPH,PrecipitationIn,Events,Conditions,WindDirDegrees,DateUTC
12:15 AM,-2.2,-9.4,71,30.20,10.0,Calm,Calm,-,N/A,,Clear,0,2013-01-01 06:15:00
12:35 AM,-2.2,-9.4,71,30.20,10.0,Calm,Calm,-,N/A,,Mostly Cloudy,0,2013-01-01 06:35:00
12:55 AM,-2.2,-7.6,78,30.21,10.0,WNW,3.5,-,N/A,,Overcast,290,2013-01-01 06:55:00
1:15 AM,1.4,-5.8,72,30.21,10.0,Calm,Calm,-,N/A,,Overcast,0,2013-01-01 07:15:00
1:35 AM,1.4,-4.0,78,30.20,10.0,Calm,Calm,-,N/A,,Overcast,0,2013-01-01 07:35:00
1:55 AM,3.2,-4.0,72,30.20,10.0,Calm,Calm,-,N/A,,Overcast,0,2013-01-01 07:55:00
2:15 AM,3.2,-5.8,66,30.21,10.0,Calm,Calm,-,N/A,,Overcast,0,2013-01-01 08:15:00
2:35 AM,3.2,-5.8,66,30.21,10.0,Calm,Calm,-,N/A,,Overcast,0,2013-01-01 08:35:00
3:15 AM,3.2,-4.0,72,30.21,10.0,Calm,Calm,-,N/A,,Overcast,0,2013-01-01 09:15:00
3:35 AM,5.0,-4.0,66,30.21,10.0,Calm,Calm,-,N/A,,Overcast,0,2013-01-01 09:35:00
3:55 AM,5.0,-4.0,66,30.21,10.0,Calm,Calm,-,N/A,,Overcast,0,2013-01-01 09:55:00
4:15 AM,6.8,-2.2,67,30.21,10.0,Calm,Calm,-,N/A,,Overcast,0,2013-01-01 10:15:00
4:35 AM,6.8,-2.2,67,30.21,10.0,SSW,4.6,-,N/A,,Overcast,200,2013-01-01 10:35:00
5:15 AM,6.8,-2.2,67,30.20,10.0,SSW,4.6,-,N/A,,Overcast,210,2013-01-01 11:15:00
5:35 AM,8.6,-0.4,67,30.20,10.0,SW,4.6,-,N/A,,Overcast,230,2013-01-01 11:35:00
5:55 AM,8.6,-0.4,67,30.19,10.0,SW,5.8,-,N/A,,Overcast,230,2013-01-01 11:55:00
6:15 AM,8.6,-0.4,67,30.19,10.0,WSW,6.9,-,N/A,,Overcast,250,2013-01-01 12:15:00
6:35 AM,8.6,-0.4,67,30.19,10.0,WSW,5.8,-,N/A,,Overcast,240,2013-01-01 12:35:00
6:55 AM,8.6,-0.4,67,30.18,10.0,WSW,5.8,-,N/A,,Overcast,250,2013-01-01 12:55:00
7:15 AM,8.6,-0.4,67,30.18,10.0,SSW,6.9,-,N/A,,Overcast,210,2013-01-01 13:15:00
7:35 AM,8.6,-0.4,67,30.17,10.0,SSW,10.4,-,N/A,,Overcast,210,2013-01-01 13:35:00
8:15 AM,10.4,1.4,67,30.18,10.0,SW,6.9,-,N/A,,Overcast,220,2013-01-01 14:15:00
8:35 AM,10.4,1.4,67,30.18,10.0,West,3.5,-,N/A,,Overcast,270,2013-01-01 14:35:00
8:55 AM,10.4,1.4,67,30.18,10.0,WSW,8.1,-,N/A,,Overcast,240,2013-01-01 14:55:00
9:15 AM,10.4,3.2,73,30.18,10.0,WSW,8.1,-,N/A,,Overcast,240,2013-01-01 15:15:00
9:35 AM,10.4,3.2,73,30.19,10.0,WSW,9.2,-,N/A,,Overcast,250,2013-01-01 15:35:00
9:55 AM,12.2,3.2,67,30.18,10.0,WSW,8.1,-,N/A,,Overcast,250,2013-01-01 15:55:00
10:15 AM,12.2,3.2,67,30.19,10.0,WSW,9.2,-,N/A,,Overcast,240,2013-01-01 16:15:00
10:35 AM,12.2,5.0,73,30.18,10.0,WSW,9.2,-,N/A,,Overcast,240,2013-01-01 16:35:00
11:15 AM,15.8,8.6,73,30.18,10.0,SW,12.7,-,N/A,,Overcast,220,2013-01-01 17:15:00
11:35 AM,15.8,8.6,73,30.17,10.0,SW,12.7,-,N/A,,Overcast,230,2013-01-01 17:35:00
11:55 AM,15.8,8.6,73,30.17,10.0,SW,8.1,-,N/A,,Overcast,220,2013-01-01 17:55:00
12:15 PM,15.8,8.6,73,30.16,10.0,SSW,9.2,-,N/A,,Overcast,210,2013-01-01 18:15:00
12:35 PM,15.8,8.6,73,30.16,10.0,SW,10.4,-,N/A,,Overcast,220,2013-01-01 18:35:00
12:55 PM,15.8,8.6,73,30.15,10.0,SSW,12.7,-,N/A,,Overcast,210,2013-01-01 18:55:00
1:15 PM,15.8,8.6,73,30.14,10.0,SSW,12.7,-,N/A,,Overcast,210,2013-01-01 19:15:00
1:35 PM,15.8,10.4,79,30.13,10.0,SW,13.8,-,N/A,,Overcast,220,2013-01-01 19:35:00
1:55 PM,15.8,10.4,79,30.12,8.0,SW,16.1,19.6,N/A,,Overcast,220,2013-01-01 19:55:00
2:15 PM,15.8,10.4,79,30.12,5.0,SSW,16.1,-,N/A,,Overcast,210,2013-01-01 20:15:00
2:35 PM,15.8,10.4,79,30.11,4.0,SSW,13.8,-,N/A,,Overcast,210,2013-01-01 20:35:00
2:55 PM,15.8,10.4,79,30.11,2.5,SW,15.0,-,N/A,,Overcast,220,2013-01-01 20:55:00
3:15 PM,17.6,10.4,73,30.10,5.0,SSW,13.8,-,N/A,,Overcast,210,2013-01-01 21:15:00
3:35 PM,17.6,10.4,73,30.10,5.0,SW,15.0,-,N/A,,Overcast,220,2013-01-01 21:35:00
3:55 PM,17.6,10.4,73,30.09,8.0,SSW,16.1,20.7,N/A,,Overcast,210,2013-01-01 21:55:00
4:15 PM,17.6,10.4,73,30.09,10.0,SW,15.0,-,N/A,,Overcast,220,2013-01-01 22:15:00
4:35 PM,17.6,10.4,73,30.09,10.0,SW,16.1,-,N/A,,Overcast,220,2013-01-01 22:35:00
4:55 PM,17.6,10.4,73,30.09,10.0,SW,15.0,-,N/A,,Overcast,220,2013-01-01 22:55:00
5:15 PM,17.6,10.4,73,30.08,10.0,SSW,16.1,-,N/A,,Overcast,210,2013-01-01 23:15:00
5:35 PM,17.6,10.4,73,30.07,10.0,SSW,15.0,-,N/A,,Overcast,210,2013-01-01 23:35:00
5:55 PM,17.6,10.4,73,30.07,10.0,SW,12.7,-,N/A,,Overcast,220,2013-01-01 23:55:00
6:15 PM,17.6,10.4,73,30.06,10.0,SW,12.7,-,N/A,,Overcast,220,2013-01-02 00:15:00
6:35 PM,17.6,10.4,73,30.05,10.0,SSW,15.0,-,N/A,,Overcast,210,2013-01-02 00:35:00
6:55 PM,17.6,10.4,73,30.05,10.0,SSW,15.0,19.6,N/A,,Overcast,210,2013-01-02 00:55:00
7:15 PM,17.6,10.4,73,30.04,10.0,SW,15.0,-,N/A,,Overcast,220,2013-01-02 01:15:00
7:35 PM,17.6,10.4,73,30.04,7.0,SW,16.1,20.7,N/A,,Overcast,230,2013-01-02 01:35:00
7:55 PM,17.6,10.4,73,30.04,4.0,SW,17.3,23.0,N/A,,Overcast,230,2013-01-02 01:55:00
8:15 PM,17.6,10.4,73,30.03,3.0,SW,18.4,21.9,N/A,,Overcast,230,2013-01-02 02:15:00
8:35 PM,17.6,10.4,73,30.02,2.5,SW,19.6,-,N/A,,Overcast,230,2013-01-02 02:35:00
8:55 PM,17.6,12.2,79,30.01,1.8,SW,19.6,-,N/A,,Overcast,230,2013-01-02 02:55:00
9:15 PM,17.6,12.2,79,30.01,1.5,SW,19.6,24.2,N/A,,Overcast,230,2013-01-02 03:15:00
9:35 PM,17.6,12.2,79,30.00,0.8,SW,19.6,-,N/A,,Overcast,230,2013-01-02 03:35:00
9:55 PM,17.6,12.2,79,30.00,0.8,SW,17.3,-,N/A,,Overcast,230,2013-01-02 03:55:00
10:15 PM,17.6,12.2,79,30.00,0.8,SW,18.4,-,N/A,,Overcast,230,2013-01-02 04:15:00
10:35 PM,17.6,12.2,79,29.99,0.8,SW,17.3,-,N/A,,Overcast,230,2013-01-02 04:35:00
10:55 PM,15.8,10.4,79,29.99,0.8,SW,18.4,-,N/A,,Overcast,230,2013-01-02 04:55:00
11:15 PM,17.6,12.2,79,29.98,0.8,SW,17.3,-,N/A,,Overcast,220,2013-01-02 05:15:00
11:35 PM,17.6,12.2,79,29.98,0.8,SW,18.4,-,N/A,,Overcast,230,2013-01-02 05:35:00
11:55 PM,17.6,12.2,79,29.98,0.8,SW,16.1,-,N/A,,Overcast,230,2013-01-02 05:55:00